Location: Hannover
(52.3723°N, 9.7339°E)
Time: 10:26:03
(UTC+01:00)

SEEDS - Visible Passes

Search period start: 26 January 2020 00:00
Search period end: 05 February 2020 00:00
Orbit: 586 x 603 km, 97.5° (Epoch: 25 January)

Date Brightness Start Highest point End Pass type
(mag) Time Alt. Az. Time Alt. Az. Time Alt. Az.
26 Jan ? 05:58:42 10° NNE 06:02:51 52° E 06:06:56 10° S visible
26 Jan ? 18:32:59 10° WSW 18:35:28 15° W 18:37:57 10° NW visible
27 Jan ? 06:08:11 10° NNE 06:12:24 65° E 06:16:34 10° S visible
27 Jan ? 18:43:22 10° WSW 18:45:08 12° W 18:46:53 10° WNW visible
28 Jan ? 04:44:37 10° ENE 04:45:34 11° E 04:46:32 10° E visible
28 Jan ? 06:17:42 10° NNE 06:21:57 81° ESE 06:26:08 10° SSW visible
29 Jan ? 04:53:12 10° ENE 04:55:14 13° E 04:57:16 10° ESE visible
29 Jan ? 06:27:14 10° NNE 06:31:29 82° WNW 06:35:40 10° SSW visible
30 Jan ? 05:02:14 10° NE 05:04:53 16° E 05:07:32 10° SE visible
30 Jan ? 06:36:48 10° N 06:41:00 67° WNW 06:45:08 10° SSW visible
31 Jan ? 05:11:26 10° NE 05:14:32 20° E 05:17:35 10° SE visible
31 Jan ? 06:46:23 10° N 06:50:30 54° WNW 06:54:35 10° SSW visible
31 Jan ? 17:43:05 10° SSW 17:47:04 39° W 17:51:04 10° NNW visible
01 Feb ? 05:20:43 10° NE 05:24:09 24° E 05:27:32 10° SSE visible
01 Feb ? 06:55:59 10° N 07:00:00 44° WNW 07:03:58 10° SW visible
01 Feb ? 17:52:51 10° SSW 17:56:39 32° W 18:00:29 10° NNW visible
02 Feb ? 05:30:04 10° NNE 05:33:45 29° E 05:37:24 10° SSE visible
02 Feb ? 07:05:37 10° N 07:09:29 36° WNW 07:13:18 10° SW visible
02 Feb ? 18:02:40 10° SSW 18:06:15 26° W 18:09:51 10° NW visible
03 Feb ? 05:39:28 10° NNE 05:43:21 35° E 05:47:11 10° SSE visible
03 Feb ? 07:15:15 10° N 07:18:57 30° WNW 07:22:36 10° SW visible
03 Feb ? 18:12:35 10° SW 18:15:52 22° W 18:19:10 10° NW visible
04 Feb ? 05:48:54 10° NNE 05:52:56 43° E 05:56:55 10° S visible
04 Feb ? 18:22:36 10° SW 18:25:29 18° W 18:28:25 10° NW visible
